Precipitable_Water
0.54 0.49 0.46 0.38 0.22 0.17 0.14 0.14 0.16 0.13 0.13 0.18 0.20 0.16 0.14 0.20 0.22 0.26 0.51 0.95 1.03 1.10 1.25 1.18 1.14 1.12 1.20 1.21 1.22 1.25 1.23 1.24 1.29 1.29 1.26 1.26 1.22 1.19 1.19 1.20 1.25 1.25 1.24 1.24 1.30 1.36 1.46 1.48 1.46
0.52 0.48 0.45 0.32 0.19 0.14 0.15 0.17 0.17 0.16 0.17 0.18 0.18 0.19 0.20 0.23 0.35 0.43 0.63 0.93 1.09 1.16 1.23 1.20 1.16 1.15 1.21 1.19 1.20 1.20 1.20 1.22 1.24 1.26 1.26 1.24 1.22 1.19 1.20 1.23 1.25 1.25 1.23 1.25 1.31 1.37 1.49 1.46 1.48
0.52 0.51 0.36 0.27 0.21 0.17 0.18 0.19 0.19 0.21 0.20 0.20 0.21 0.24 0.25 0.29 0.43 0.51 0.73 0.97 1.19 1.24 1.26 1.20 1.14 1.17 1.20 1.18 1.16 1.14 1.16 1.19 1.21 1.23 1.23 1.22 1.20 1.21 1.22 1.23 1.25 1.26 1.24 1.28 1.33 1.41 1.45 1.47 1.45
0.47 0.42 0.35 0.25 0.21 0.24 0.24 0.23 0.24 0.22 0.24 0.26 0.26 0.23 0.31 0.48 0.48 0.62 0.81 1.08 1.19 1.28 1.28 1.29 1.15 1.19 1.20 1.16 1.14 1.10 1.12 1.15 1.19 1.20 1.22 1.21 1.21 1.22 1.23 1.23 1.25 1.25 1.27 1.30 1.35 1.39 1.44 1.43 1.41
0.47 0.39 0.27 0.25 0.25 0.27 0.28 0.30 0.30 0.26 0.27 0.27 0.29 0.26 0.30 0.44 0.58 0.66 0.77 1.12 1.17 1.24 1.32 1.33 1.26 1.21 1.19 1.18 1.11 1.09 1.11 1.15 1.17 1.19 1.20 1.20 1.23 1.26 1.24 1.25 1.26 1.27 1.32 1.34 1.37 1.35 1.39 1.41 1.38
0.36 0.38 0.26 0.23 0.26 0.30 0.32 0.33 0.32 0.31 0.31 0.30 0.31 0.31 0.34 0.44 0.48 0.65 0.79 1.09 1.25 1.23 1.31 1.32 1.31 1.29 1.22 1.18 1.12 1.10 1.12 1.15 1.17 1.19 1.21 1.23 1.24 1.25 1.27 1.27 1.27 1.31 1.33 1.37 1.39 1.38 1.37 1.37 1.36
0.35 0.33 0.27 0.28 0.28 0.29 0.32 0.37 0.33 0.33 0.33 0.33 0.39 0.30 0.38 0.45 0.48 0.71 0.80 1.06 1.28 1.31 1.31 1.35 1.34 1.35 1.29 1.21 1.15 1.12 1.11 1.13 1.16 1.20 1.21 1.23 1.24 1.24 1.27 1.29 1.30 1.34 1.36 1.38 1.43 1.43 1.36 1.36 1.35
0.37 0.34 0.28 0.29 0.28 0.29 0.34 0.35 0.37 0.35 0.34 0.45 0.43 0.33 0.37 0.47 0.47 0.60 0.67 0.96 1.24 1.37 1.35 1.36 1.39 1.37 1.34 1.29 1.21 1.17 1.14 1.12 1.13 1.19 1.23 1.24 1.22 1.25 1.27 1.30 1.33 1.34 1.36 1.39 1.44 1.44 1.40 1.40 1.37
0.43 0.30 0.27 0.29 0.30 0.30 0.35 0.35 0.39 0.47 0.40 0.42 0.45 0.43 0.47 0.47 0.45 0.46 0.49 0.80 1.08 1.27 1.40 1.36 1.39 1.40 1.37 1.34 1.29 1.23 1.19 1.17 1.16 1.16 1.23 1.26 1.30 1.30 1.32 1.31 1.33 1.36 1.38 1.39 1.38 1.40 1.43 1.42 1.38
0.36 0.31 0.30 0.35 0.35 0.33 0.35 0.37 0.37 0.39 0.38 0.39 0.40 0.44 0.45 0.42 0.43 0.43 0.46 0.50 0.84 1.17 1.33 1.38 1.38 1.38 1.33 1.33 1.33 1.28 1.26 1.22 1.22 1.20 1.22 1.27 1.31 1.35 1.36 1.35 1.38 1.38 1.38 1.39 1.37 1.36 1.41 1.41 1.39
0.37 0.33 0.35 0.39 0.38 0.39 0.37 0.37 0.38 0.35 0.32 0.36 0.35 0.36 0.38 0.41 0.41 0.43 0.46 0.49 0.65 1.12 1.34 1.38 1.37 1.41 1.33 1.30 1.32 1.28 1.27 1.25 1.25 1.25 1.25 1.25 1.29 1.36 1.34 1.38 1.37 1.39 1.38 1.36 1.35 1.35 1.37 1.38 1.39
0.33 0.36 0.35 0.35 0.38 0.36 0.32 0.31 0.29 0.30 0.31 0.35 0.36 0.38 0.39 0.38 0.38 0.40 0.44 0.46 0.53 0.89 1.28 1.45 1.44 1.35 1.30 1.27 1.25 1.23 1.23 1.23 1.21 1.22 1.27 1.23 1.22 1.25 1.27 1.28 1.30 1.32 1.36 1.32 1.28 1.30 1.32 1.39 1.40
0.28 0.28 0.29 0.32 0.30 0.29 0.27 0.25 0.24 0.24 0.27 0.29 0.32 0.32 0.32 0.34 0.35 0.36 0.40 0.47 0.50 0.63 0.95 1.32 1.46 1.39 1.27 1.19 1.19 1.17 1.15 1.17 1.22 1.24 1.26 1.26 1.22 1.18 1.20 1.22 1.26 1.30 1.36 1.36 1.30 1.27 1.28 1.33 1.37
0.31 0.30 0.29 0.26 0.24 0.23 0.20 0.19 0.21 0.23 0.25 0.24 0.23 0.24 0.26 0.28 0.31 0.33 0.36 0.41 0.46 0.51 0.63 0.80 1.23 1.48 1.39 1.26 1.14 1.09 1.15 1.16 1.20 1.20 1.22 1.27 1.24 1.18 1.17 1.18 1.20 1.24 1.30 1.33 1.35 1.29 1.25 1.26 1.31
0.26 0.23 0.25 0.24 0.23 0.21 0.22 0.19 0.21 0.24 0.25 0.23 0.22 0.21 0.21 0.21 0.23 0.25 0.30 0.34 0.41 0.46 0.53 0.63 0.80 1.13 1.21 1.21 1.26 1.19 1.10 1.12 1.15 1.15 1.22 1.26 1.30 1.29 1.20 1.15 1.17 1.20 1.27 1.26 1.31 1.33 1.29 1.22 1.26
0.23 0.23 0.18 0.23 0.24 0.23 0.21 0.14 0.17 0.25 0.22 0.20 0.19 0.19 0.18 0.18 0.19 0.20 0.21 0.24 0.32 0.41 0.47 0.55 0.63 0.81 1.08 1.12 1.14 1.27 1.30 1.18 1.12 1.17 1.26 1.27 1.26 1.31 1.28 1.16 1.14 1.24 1.26 1.24 1.21 1.23 1.22 1.19 1.17
0.21 0.14 0.14 0.18 0.22 0.20 0.19 0.16 0.20 0.22 0.21 0.19 0.19 0.18 0.18 0.18 0.19 0.20 0.21 0.22 0.22 0.27 0.39 0.47 0.54 0.60 0.81 1.10 1.18 1.20 1.29 1.44 1.33 1.32 1.30 1.31 1.35 1.30 1.29 1.23 1.20 1.25 1.23 1.18 1.21 1.18 1.19 1.18 1.15
0.15 0.16 0.17 0.16 0.18 0.20 0.18 0.18 0.20 0.24 0.21 0.20 0.20 0.19 0.20 0.19 0.20 0.23 0.26 0.29 0.36 0.37 0.37 0.38 0.48 0.55 0.63 0.87 1.09 1.15 1.16 1.28 1.46 1.45 1.30 1.28 1.26 1.27 1.25 1.29 1.27 1.23 1.20 1.17 1.17 1.17 1.20 1.19 1.16
0.21 0.19 0.17 0.18 0.21 0.20 0.18 0.18 0.19 0.18 0.17 0.16 0.17 0.18 0.19 0.27 0.40 0.44 0.45 0.47 0.45 0.43 0.42 0.42 0.43 0.57 0.55 0.59 0.78 0.90 1.02 1.10 1.14 1.30 1.32 1.24 1.24 1.25 1.23 1.24 1.29 1.18 1.11 1.14 1.15 1.17 1.15 1.15 1.22
0.19 0.18 0.18 0.21 0.22 0.19 0.16 0.14 0.16 0.16 0.17 0.19 0.19 0.26 0.36 0.37 0.38 0.40 0.43 0.47 0.48 0.45 0.45 0.45 0.45 0.47 0.54 0.57 0.57 0.81 0.91 0.96 1.01 1.11 1.27 1.38 1.29 1.21 1.20 1.17 1.25 1.19 1.12 1.17 1.14 1.11 1.08 1.14 1.19
0.20 0.19 0.19 0.19 0.19 0.19 0.18 0.16 0.16 0.18 0.20 0.28 0.40 0.37 0.37 0.36 0.36 0.38 0.40 0.44 0.48 0.46 0.45 0.45 0.46 0.49 0.51 0.56 0.59 0.55 0.86 0.93 0.92 0.96 1.09 1.17 1.20 1.13 1.11 1.12 1.15 1.26 1.20 1.13 1.17 1.16 1.10 1.01 1.12
0.19 0.23 0.21 0.20 0.18 0.15 0.18 0.13 0.18 0.20 0.22 0.35 0.36 0.36 0.37 0.39 0.40 0.40 0.41 0.43 0.46 0.48 0.49 0.48 0.48 0.48 0.51 0.55 0.55 0.53 0.57 0.72 0.80 0.89 0.94 0.93 1.07 1.13 1.12 1.13 1.13 1.18 1.28 1.23 1.17 1.22 1.19 1.16 0.99
0.21 0.25 0.24 0.24 0.22 0.21 0.19 0.18 0.17 0.18 0.19 0.32 0.34 0.39 0.40 0.40 0.40 0.39 0.41 0.44 0.50 0.52 0.51 0.50 0.51 0.50 0.54 0.56 0.58 0.59 0.50 0.66 0.82 0.85 0.86 0.88 0.93 1.08 1.15 1.14 1.17 1.14 1.20 1.26 1.27 1.25 1.23 1.20 1.14
0.26 0.23 0.21 0.21 0.20 0.16 0.18 0.17 0.16 0.20 0.29 0.29 0.32 0.36 0.37 0.40 0.41 0.42 0.44 0.45 0.49 0.54 0.55 0.55 0.52 0.53 0.56 0.56 0.59 0.62 0.64 0.60 0.72 0.74 0.79 0.83 0.90 0.90 1.04 1.19 1.19 1.17 1.15 1.15 1.27 1.37 1.34 1.30 1.30
0.24 0.20 0.15 0.15 0.17 0.15 0.18 0.16 0.15 0.30 0.31 0.30 0.33 0.35 0.39 0.42 0.41 0.43 0.42 0.43 0.47 0.52 0.58 0.60 0.59 0.57 0.61 0.60 0.56 0.61 0.64 0.67 0.76 0.73 0.79 0.84 0.89 0.88 0.92 1.10 1.15 1.15 1.15 1.19 1.36 1.40 1.31 1.25 1.23
0.23 0.21 0.16 0.11 0.11 0.12 0.19 0.14 0.17 0.31 0.31 0.35 0.36 0.38 0.41 0.41 0.41 0.43 0.44 0.46 0.47 0.52 0.55 0.59 0.59 0.59 0.65 0.65 0.59 0.63 0.67 0.73 0.77 0.85 0.85 0.90 0.92 0.97 0.99 1.01 1.12 1.15 1.16 1.18 1.32 1.31 1.27 1.27 1.31
0.20 0.18 0.20 0.15 0.15 0.13 0.14 0.14 0.22 0.29 0.32 0.34 0.36 0.38 0.39 0.40 0.43 0.44 0.47 0.49 0.50 0.51 0.54 0.60 0.64 0.70 0.72 0.69 0.63 0.66 0.72 0.81 0.82 0.91 0.97 0.97 1.04 1.04 1.07 1.10 1.15 1.17 1.15 1.18 1.25 1.31 1.27 1.31 1.32
0.18 0.24 0.18 0.17 0.12 0.11 0.14 0.15 0.21 0.27 0.29 0.32 0.35 0.37 0.39 0.41 0.44 0.46 0.51 0.54 0.56 0.57 0.59 0.64 0.69 0.75 0.72 0.69 0.65 0.66 0.72 0.83 0.96 1.02 0.99 1.04 1.13 1.13 1.12 1.11 1.16 1.16 1.15 1.19 1.23 1.28 1.30 1.32 1.34
0.20 0.17 0.19 0.21 0.19 0.14 0.14 0.20 0.32 0.29 0.31 0.34 0.37 0.39 0.41 0.43 0.46 0.51 0.55 0.60 0.61 0.61 0.63 0.68 0.77 0.77 0.76 0.72 0.70 0.70 0.78 0.92 1.06 1.04 1.09 1.14 1.20 1.23 1.22 1.17 1.14 1.14 1.16 1.17 1.19 1.25 1.28 1.29 1.27
0.20 0.19 0.21 0.16 0.18 0.20 0.20 0.19 0.35 0.37 0.37 0.40 0.40 0.41 0.44 0.46 0.48 0.51 0.56 0.59 0.61 0.63 0.67 0.70 0.74 0.80 0.81 0.80 0.81 0.84 0.91 1.05 1.15 1.14 1.13 1.20 1.21 1.29 1.26 1.25 1.20 1.19 1.20 1.23 1.26 1.24 1.35 1.30 1.26
Wind_Speed
13 13 12 12 13 12 12 10 11 11 11 9 9 11 13 13 11 11 12 13 14 13 17 18 16 15 12 10 8 8 8 8 8 8 8 8 7 6 6 5 5 5 4 4 3 3 3 3 2
14 13 13 12 13 13 11 11 13 13 12 13 13 12 14 10 11 14 13 14 12 12 16 18 17 15 13 11 9 8 9 9 9 9 9 9 8 8 7 6 6 6 5 5 4 4 4 3 3
14 14 14 14 14 16 14 9 12 12 14 15 14 14 13 11 12 13 15 14 12 13 16 18 18 16 14 13 11 10 10 10 10 10 10 10 10 9 8 8 7 7 6 6 5 4 4 4 3
14 15 16 18 18 14 14 11 10 12 12 14 14 16 13 11 12 14 15 13 13 15 17 18 19 17 16 14 12 11 11 11 11 11 11 11 10 10 9 9 9 8 8 7 6 5 5 5 4
16 17 19 20 21 19 18 18 17 17 18 18 17 16 15 13 13 14 14 13 14 15 17 19 20 19 17 16 14 13 12 12 12 12 11 11 11 11 11 10 10 10 9 8 7 6 6 5 5
18 18 21 22 22 20 20 19 20 20 20 20 19 18 17 15 16 15 14 14 15 17 18 19 21 21 19 17 16 14 13 13 12 12 12 12 12 12 12 11 11 11 11 10 9 8 7 7 6
23 22 25 25 23 21 20 18 19 19 20 20 18 20 19 18 18 17 16 15 17 19 20 20 22 22 21 19 18 17 15 14 13 13 13 13 13 13 13 13 13 13 12 12 11 10 9 8 7
21 22 25 23 24 25 21 21 21 22 21 20 20 19 19 21 21 20 19 18 19 20 22 22 23 23 23 21 20 19 17 16 15 15 14 14 14 14 14 14 14 14 14 13 12 11 10 9 9
21 23 25 24 23 23 21 22 21 22 24 24 23 24 25 26 25 23 22 21 21 22 24 24 24 24 24 23 22 21 19 18 17 17 16 15 14 14 14 15 15 15 15 14 14 13 12 11 10
23 25 25 24 24 25 25 25 25 26 26 27 27 27 27 27 25 25 23 22 23 25 27 27 27 27 26 24 22 22 21 20 19 18 18 17 16 16 15 16 16 16 15 15 15 15 14 13 12
22 26 25 25 26 25 26 27 27 28 28 27 27 28 28 28 27 26 26 24 24 25 27 30 29 29 28 26 24 23 23 21 21 20 20 19 18 17 17 17 17 17 17 16 16 16 15 15 13
24 25 25 24 24 26 27 28 28 29 28 27 28 28 27 27 27 27 27 26 25 25 27 29 31 32 31 30 27 25 24 24 22 22 22 21 20 18 18 18 18 17 17 17 17 17 17 16 15
25 25 24 25 26 27 28 29 29 30 28 27 24 24 25 26 26 26 26 27 26 26 27 28 31 32 33 33 31 29 27 25 25 24 24 23 22 21 20 20 19 19 18 18 18 17 17 17 16
22 24 26 26 27 28 29 30 27 24 22 22 22 23 24 25 26 27 27 28 28 28 29 31 31 32 34 35 35 33 31 30 28 27 27 27 25 23 23 22 21 20 20 20 19 18 18 17 17
26 28 29 29 26 25 25 27 26 25 23 23 24 25 26 26 27 28 28 29 31 30 31 32 34 34 35 35 36 36 35 34 32 30 30 29 29 27 25 24 24 23 22 22 21 20 19 18 18
26 26 27 21 23 23 24 27 23 22 25 27 29 29 29 29 28 28 28 30 31 32 32 33 35 37 38 38 38 37 37 37 36 34 33 32 32 31 29 28 27 26 25 24 23 22 21 20 19
24 29 27 26 24 25 26 28 26 28 30 32 31 32 31 30 30 30 31 31 31 33 34 36 36 38 40 41 40 40 39 38 37 36 35 34 33 33 32 31 30 29 28 27 25 24 23 22 21
28 27 28 29 26 30 34 36 33 30 33 34 34 34 31 32 31 32 33 33 34 35 36 37 39 39 41 42 43 43 42 41 40 39 37 36 35 34 33 32 31 31 31 30 29 27 26 24 23
30 31 33 32 31 34 34 35 34 35 35 36 34 31 31 30 31 31 33 34 36 37 37 38 39 40 41 43 45 46 46 45 44 43 41 39 38 36 36 34 33 34 34 34 32 30 28 27 25
33 34 34 33 28 32 36 42 37 37 33 29 31 29 30 31 32 33 35 36 36 37 39 39 40 41 42 44 45 47 47 47 47 45 44 43 41 39 38 37 34 33 33 35 35 33 30 29 28
32 33 32 34 34 36 39 43 28 26 26 26 27 29 31 33 34 35 36 37 38 39 40 42 43 44 44 45 46 48 48 48 48 48 46 45 43 42 41 39 37 35 36 36 36 36 34 32 31
33 30 30 31 31 31 28 36 36 32 25 27 27 31 31 32 34 35 37 38 39 40 41 43 45 47 48 48 49 50 49 50 49 48 48 47 46 45 44 43 40 38 36 37 37 37 37 35 32
28 26 29 31 33 34 34 29 34 24 28 26 28 30 30 32 33 35 37 39 39 40 41 43 44 47 49 51 53 52 53 52 49 49 49 50 48 48 47 46 44 40 39 36 37 38 37 37 34
25 28 31 29 28 29 34 29 30 21 22 26 27 28 30 32 34 36 37 39 39 39 40 42 45 46 49 52 54 55 56 55 51 50 48 48 50 49 49 48 46 42 40 38 38 37 37 36 35
25 23 22 22 20 23 16 21 26 18 21 23 26 28 29 31 32 34 35 37 36 36 37 38 40 43 45 49 53 55 55 56 54 51 47 45 46 49 50 49 47 44 41 39 38 37 37 35 34
21 21 21 22 21 21 16 21 17 17 19 21 24 26 28 29 31 32 31 30 30 29 29 29 30 32 33 37 42 48 50 51 52 50 46 43 43 45 48 49 47 45 41 39 39 37 36 36 34
19 22 24 26 27 26 23 22 18 17 19 22 24 25 26 27 27 25 22 23 23 23 23 23 23 23 24 26 31 37 41 44 46 45 43 41 40 41 42 45 46 44 41 40 39 38 37 35 34
23 16 15 17 15 17 15 19 13 17 20 21 22 22 21 20 20 20 19 21 21 20 19 19 18 18 18 18 21 28 33 37 40 40 40 39 37 37 38 41 42 41 41 39 39 37 36 34 33
14 19 18 17 17 13 13 10 12 15 15 16 16 16 16 17 16 15 15 19 18 15 14 14 13 14 13 13 15 20 26 32 34 36 37 36 35 35 36 38 38 38 39 37 38 37 36 34 32
19 16 17 16 12 14 14 14 7 7 9 12 14 14 14 12 12 13 14 17 17 13 11 11 12 9 8 9 11 15 18 23 29 31 33 33 32 33 34 34 34 35 36 36 37 36 34 33 32
Wind_Direction
267 269 270 270 270 269 267 267 265 254 263 260 266 269 275 274 261 267 285 282 278 243 220 214 216 219 224 229 234 239 235 234 235 236 236 240 239 235 232 227 223 217 214 214 222 217 217 213 201
264 264 265 269 268 263 268 260 257 261 263 269 269 263 264 266 265 274 281 290 270 234 216 214 217 220 224 229 234 239 237 238 239 238 241 242 240 237 235 229 226 223 220 217 217 218 213 212 213
260 260 264 265 264 261 272 275 271 265 264 265 265 267 264 264 278 279 283 281 256 230 220 218 217 221 224 229 237 241 240 241 242 242 243 243 240 238 236 232 229 227 223 223 222 224 221 219 224
259 260 263 261 259 261 262 273 271 267 262 262 270 265 257 259 278 286 284 270 250 229 223 220 220 222 225 229 236 241 242 244 243 243 243 241 240 238 237 235 231 230 226 226 226 225 223 221 222
259 263 261 262 263 262 264 269 271 267 268 268 268 260 257 258 281 287 286 265 246 231 226 223 222 224 227 231 237 240 243 244 246 244 242 239 239 238 238 236 234 230 227 227 227 229 227 224 226
258 264 260 262 264 263 267 266 266 266 268 267 261 259 258 259 282 283 280 263 245 234 231 226 224 225 226 231 238 240 242 243 244 243 241 240 240 239 238 237 235 231 229 229 232 231 230 229 228
260 261 264 268 270 268 267 265 263 266 267 265 264 262 259 264 281 275 273 263 248 239 235 231 228 227 228 233 237 239 241 241 243 243 241 241 241 240 240 237 235 232 231 232 233 232 231 231 231
261 264 264 264 267 266 268 267 268 266 265 267 264 265 260 274 276 271 269 262 250 242 237 233 231 230 230 235 237 238 239 241 241 241 241 240 240 241 240 238 236 234 233 233 233 232 232 232 233
261 263 264 263 264 268 268 268 268 268 267 265 265 265 272 272 271 269 267 261 252 245 238 233 232 231 233 236 237 237 239 239 239 239 239 239 240 242 240 239 237 236 235 234 233 232 232 233 236
259 262 269 267 268 269 269 269 271 271 270 267 269 267 270 271 267 266 265 262 256 246 238 233 233 233 233 235 235 236 237 238 238 238 238 238 242 244 243 241 240 238 236 236 234 233 232 233 240
263 264 270 267 269 271 271 272 273 273 270 270 271 271 271 271 268 265 263 263 259 249 241 234 233 233 232 233 235 235 236 237 237 237 238 240 244 245 243 244 241 240 238 238 235 233 234 236 242
267 266 267 270 270 270 272 276 273 272 272 272 271 273 271 270 268 266 262 260 258 251 244 238 234 233 233 232 235 236 236 237 238 238 238 241 245 246 245 244 242 240 239 238 235 235 236 239 245
266 270 270 271 272 272 275 273 274 272 272 273 271 269 270 270 269 267 263 259 256 252 246 242 239 236 234 233 235 237 238 239 239 240 239 241 246 246 246 247 245 243 241 238 237 236 237 240 245
276 272 273 275 274 276 275 275 272 271 269 266 270 273 274 272 271 269 265 260 256 253 249 245 242 239 238 237 236 237 239 240 240 242 242 242 245 248 247 247 246 244 241 239 238 238 238 241 246
275 276 275 273 272 273 277 272 266 268 267 269 272 275 277 275 272 269 266 263 259 255 252 249 245 242 240 240 240 239 239 240 241 242 243 243 244 246 248 247 246 244 241 239 238 239 239 242 247
277 275 277 273 273 270 274 275 272 265 272 276 276 277 277 275 272 269 267 264 261 257 253 251 249 246 244 243 242 240 240 240 241 242 243 245 244 246 247 248 246 244 242 240 239 239 241 243 247
270 276 275 277 273 275 271 277 273 273 275 277 275 277 276 273 271 270 268 266 262 261 258 254 252 249 247 244 242 241 240 239 240 241 242 244 246 245 247 246 245 243 242 240 239 240 241 243 247
280 275 273 274 275 277 277 275 275 273 274 274 275 276 274 274 272 271 270 266 266 263 261 258 254 253 249 246 243 242 241 240 241 241 242 244 245 244 245 246 245 243 241 240 240 240 242 244 247
278 274 275 276 278 279 276 277 277 276 274 273 273 273 276 277 277 274 272 270 268 265 264 260 257 254 251 247 244 243 243 242 242 241 242 243 243 243 243 245 246 243 241 240 239 239 241 243 246
273 273 273 277 273 276 281 279 282 278 273 269 273 277 279 279 278 276 275 272 270 268 265 262 258 254 253 250 247 245 244 243 242 241 241 240 240 241 243 243 245 243 241 240 239 238 241 242 243
270 272 275 276 280 278 279 278 277 264 272 272 276 279 281 282 281 280 278 275 272 270 267 264 261 257 253 251 250 247 244 243 241 240 240 239 240 240 242 242 243 243 243 242 240 238 239 242 243
272 273 272 275 279 279 284 281 278 276 265 272 282 285 285 285 285 283 281 279 275 273 270 266 263 259 255 252 249 247 245 242 241 240 240 239 239 239 240 240 241 243 243 242 240 239 239 240 245
271 273 275 278 277 280 273 270 278 259 271 282 287 287 289 289 289 288 285 283 279 276 274 270 267 262 257 253 249 246 244 243 241 240 240 239 239 239 238 238 239 241 241 243 240 238 238 241 243
275 277 277 274 274 270 276 262 277 273 275 282 289 292 293 295 293 292 289 287 282 279 278 274 270 266 261 255 249 245 242 240 239 238 239 239 238 238 237 237 237 239 241 242 240 237 237 239 242
270 272 278 270 266 274 274 268 270 272 281 288 292 295 297 299 299 297 294 291 285 281 280 277 273 269 265 258 250 243 241 237 235 235 236 236 237 236 234 233 234 237 239 241 237 236 236 237 241
266 266 270 278 279 280 261 271 275 279 289 293 297 300 302 304 304 302 298 296 289 284 281 278 277 275 268 260 249 240 236 233 231 232 233 233 234 234 232 231 232 233 237 238 235 234 235 237 241
267 264 269 273 272 273 266 269 270 285 294 302 305 306 307 308 309 310 306 305 298 289 282 280 279 280 272 262 248 234 230 229 225 226 228 230 232 230 229 227 228 231 233 234 233 233 235 238 242
261 274 264 255 270 271 267 264 279 296 302 306 308 310 313 315 316 315 314 315 308 297 286 280 284 284 276 264 240 228 226 224 220 222 224 226 227 225 223 224 226 229 231 233 231 232 235 239 242
257 254 257 268 267 274 282 276 293 300 304 312 316 320 319 321 323 325 327 332 326 310 296 281 288 287 279 258 236 224 219 217 216 218 220 222 222 222 221 223 225 228 229 230 230 231 235 238 243
261 255 252 257 259 261 272 276 296 306 313 323 326 329 330 335 337 335 340 348 351 351 338 300 284 283 286 254 226 215 208 207 211 215 216 219 220 219 220 221 224 226 227 228 229 232 236 238 244